[[{"header":{"parameterUnit":"m.s-1","parameterCategory":1,"la1":30.2991,"la2":30.254,"lo1":-89.0895,"lo2":-89.0444,"dy":0.0017,"dx":0.0017,"nx":28,"ny":28,"refTime":"2024-07-06T09:00:00:Z","depth":0,"parameterNumber":2,"parameterNumberName":"U-component_of_WINDS"},"data":[0,0,0,0,0,0,0,0,0,0,0,0,0,0,0,0,0,0,0,0,0,0,0,0,0,0,0,0,0,0,0,0,0,0,0,0,0,0,0,0,0,0,0,0,0,0,0,0,0,0,0,0,0,0,0,0,0,0,0.9893,0.9895,0,1.0015,1.0016,1.0018,1.0035,1.0034,1.0033,1.0032,1.0161,1.0165,1.0169,0,0,0,0,0,0,0,0,0,0,0,0,0,0.968,0.9684,0.9893,0.9895,0.9896,1.0015,1.0016,1.0018,1.0035,1.0034,1.0033,1.0031,1.0159,1.0164,1.017,0,0,0,0,0,0,0,0,0,0,0,0,0,0.9784,0.9685,0.9893,0.9919,0.9923,1.0014,1.0016,1.0018,1.0036,1.0034,1.0032,1.0031,1.0157,1.0164,1.0171,1.0246,0,0,1.0191,1.0194,0,0,0,0,0,0,0,0,0.9779,0.9792,0.9914,0.9917,0.9922,1.0008,0.9988,1.0095,1.0036,0.9993,1.0032,1.003,1.0112,1.0122,1.0149,1.0252,1.0257,1.0192,1.0196,1.0199,1.0201,0,0,0,0,0,0,0,0.9771,0.9787,0.9941,0.9915,0.992,0.9926,0.9939,1.0009,1.006,0.9997,0.9998,1.0012,1.0113,1.0142,1.0152,1.0259,1.0192,1.0197,1.0202,1.0204,1.0431,1.0433,0,0,0,0,0,0,0.9759,0.9781,0.9938,0.9945,0.9844,0.9931,0.9946,0.9982,1.006,1.007,1.0013,1.0012,1.0131,1.0144,1.0156,1.025,1.0199,1.0205,1.0209,1.0429,1.0432,1.0434,0,0,0,0,0,0,0.9754,0.9773,0.9933,0.9864,0.9884,0.9937,0.9977,0.9985,1.0014,1.0072,1.0082,1.0033,1.0131,1.0147,1.0223,1.0255,1.0208,1.0214,1.0427,1.043,1.0433,1.0437,0,0,0,0,0,0,0.9748,0.9771,0.9799,0.9864,0.9888,0.9996,0.9979,0.9989,1.0025,1.0025,1.0093,1.0103,1.0131,1.0213,1.023,1.0263,1.0219,1.0425,1.0428,1.0432,1.0435,1.044,1.0445,0,0,0,0,0,0.974,0.9796,0.98,0.9819,0.9924,0.9998,1.0012,1.0041,1.0027,1.0057,1.0094,1.0101,1.0248,1.0221,1.024,1.0275,1.0423,1.0427,1.0432,1.0432,1.0439,1.0445,0,0,0,0,0,0,0.9734,0.9805,0.981,0.9888,0.9937,1.0001,1.0039,1.0047,1.0102,1.01,1.0135,1.0151,1.0226,1.0258,1.0226,1.0353,1.0335,1.0343,1.0329,1.0335,1.034,1.0331,1.0225,0,0,0,0,0,0.9742,0.9795,0.9854,0.9918,0.9941,0.9986,1.0019,1.0038,1.009,1.0111,1.0154,1.0206,1.0264,1.0302,1.0358,1.044,1.0455,1.0474,1.0479,1.0482,1.049,1.0536,1.0545,1.0449,1.0449,1.0449,0,0,0.9759,0.9804,0.9835,0.9918,0.9957,1.0013,1.0003,1.0062,1.0104,1.012,1.0195,1.0228,1.0289,1.0368,1.0405,1.0398,1.052,1.0488,1.0491,1.0496,1.0541,1.055,1.0558,1.0452,1.0451,1.0451,0,0,0.9817,0.9856,0.9913,0.9953,1.0013,1.0042,1.0056,1.0119,1.0141,1.0216,1.023,1.0281,1.038,1.0423,1.0457,1.0532,1.054,1.055,1.0577,1.0621,1.0629,1.0636,1.0663,1.0672,1.0557,1.0557,1.0557,0,0.983,0.9913,0.9942,1.0,1.0037,1.0053,1.0112,1.015,1.0226,1.0251,1.0241,1.0366,1.0408,1.0498,1.0516,1.0543,1.0561,1.0542,1.0625,1.0632,1.0639,1.0666,1.0676,1.0557,1.0557,1.0557,1.0557,0,0.9927,0.9984,1.0023,1.0095,1.0136,1.0194,1.0233,1.0271,1.0286,1.0317,1.0394,1.0445,1.0512,1.0535,1.055,1.0627,1.0621,1.0618,1.06,1.0649,1.0674,1.0684,1.0559,1.0558,1.0558,1.0558,0,0,0.9985,1.0071,1.0085,1.0118,1.0186,1.0231,1.0291,1.0356,1.0388,1.044,1.0492,1.0576,1.0573,1.0612,1.0633,1.0673,1.0729,1.0665,1.0667,1.0676,1.0818,1.082,1.0831,1.0735,1.0737,1.0739,1.0813,0,1.0051,1.0157,1.0185,1.0275,1.0329,1.0345,1.0398,1.0445,1.0476,1.0527,1.0562,1.062,1.0612,1.0636,1.0676,1.0714,1.0759,1.0709,1.0785,1.0787,1.0769,1.0844,1.0846,1.0914,1.0823,1.0825,1.0826,0,1.0143,1.0196,1.029,1.0351,1.0375,1.0421,1.0483,1.0531,1.0587,1.0606,1.065,1.0667,1.0732,1.071,1.0801,1.0766,1.0799,1.0823,1.0826,1.0835,1.081,1.0855,1.0936,1.0946,1.0842,1.0841,1.084,0,1.0176,1.0271,1.034,1.0368,1.044,1.0473,1.0505,1.0558,1.0595,1.065,1.0675,1.0737,1.0771,1.0819,1.0853,1.0834,1.094,1.0922,1.0959,1.0959,1.0981,1.0979,1.1069,1.1002,1.1002,1.1002,1.1001,0,1.0248,1.0305,1.0356,1.0398,1.0464,1.0496,1.0561,1.0594,1.0641,1.0691,1.071,1.0757,1.0799,1.0853,1.088,1.0951,1.0966,1.0985,1.0991,1.0983,1.0981,1.1005,1.1002,1.1004,1.1004,1.1003,1.1003,0,1.0295,1.0332,1.0408,1.047,1.0488,1.0533,1.0587,1.063,1.0661,1.0725,1.0742,1.0791,1.0855,1.0893,1.0975,1.0993,1.1071,1.1076,1.1052,1.1055,1.109,1.1087,1.1199,1.1216,1.1137,1.1138,1.1139,0,1.0339,1.0383,1.045,1.0484,1.0516,1.0572,1.0609,1.0644,1.0683,1.0749,1.0784,1.0849,1.0902,1.1004,1.1048,1.111,1.1117,1.1152,1.1126,1.1117,1.1118,1.1115,1.112,1.1156,1.1157,1.1157,1.1158,0,1.0411,1.0427,1.048,1.054,1.0584,1.0633,1.0682,1.071,1.0752,1.0796,1.086,1.0901,1.0984,1.1048,1.1114,1.1149,1.1161,1.1165,1.1177,1.117,1.1154,1.1163,1.1064,1.1163,1.1162,1.1162,1.1162,1.1161,1.0459,1.0499,1.0552,1.0611,1.0651,1.0697,1.074,1.0776,1.083,1.0899,1.0916,1.0984,1.104,1.113,1.1166,1.1221,1.1215,1.1233,1.1237,1.1241,1.1242,1.1145,1.1233,1.1233,1.1233,1.1233,1.1233,0,1.0533,1.0568,1.0621,1.0689,1.0735,1.0741,1.0796,1.0835,1.0894,1.0944,1.0996,1.107,1.1133,1.1182,1.1247,1.1281,1.1288,1.1297,1.1295,1.1303,1.1243,1.1226,1.129,1.129,1.129,1.129,1.129,1.129,1.0577,1.0645,1.0668,1.0757,1.0792,1.0858,1.0889,1.0931,1.0971,1.1053,1.1105,1.1136,1.1186,1.1254,1.1313,1.1326,1.1349,1.1357,1.1371,1.1313,1.1307,1.1301,1.1285,1.1361,1.1361,1.1426,1.1427,1.1427]},{"header":{"parameterUnit":"m.s-1","parameterCategory":1,"la1":30.2991,"la2":30.254,"lo1":-89.0895,"lo2":-89.0444,"dy":0.0017,"dx":0.0017,"nx":28,"ny":28,"refTime":"2024-07-06T09:00:00:Z","depth":0,"parameterNumber":3,"parameterNumberName":"V-component_of_WINDS"},"data":[0,0,0,0,0,0,0,0,0,0,0,0,0,0,0,0,0,0,0,0,0,0,0,0,0,0,0,0,0,0,0,0,0,0,0,0,0,0,0,0,0,0,0,0,0,0,0,0,0,0,0,0,0,0,0,0,0,0,0.0715,0.0715,0,0.0723,0.0723,0.0723,0.0634,0.0632,0.0629,0.0627,0.0641,0.0643,0.0646,0,0,0,0,0,0,0,0,0,0,0,0,0,0.063,0.0632,0.0715,0.0715,0.0716,0.0723,0.0723,0.0723,0.0635,0.0632,0.0629,0.0626,0.064,0.0643,0.0646,0,0,0,0,0,0,0,0,0,0,0,0,0,0.0656,0.0633,0.0715,0.0672,0.0668,0.0723,0.0723,0.0723,0.0635,0.0632,0.0628,0.0625,0.0639,0.0643,0.0646,0.0744,0,0,0.0659,0.066,0,0,0,0,0,0,0,0,0.0654,0.0659,0.0679,0.0675,0.0671,0.0674,0.0698,0.073,0.0636,0.0648,0.0627,0.0623,0.0655,0.0657,0.0667,0.0745,0.0745,0.0659,0.0661,0.0663,0.0664,0,0,0,0,0,0,0,0.0653,0.0658,0.0718,0.0679,0.0675,0.0654,0.0654,0.0703,0.0672,0.0647,0.064,0.0642,0.0652,0.0663,0.0667,0.0745,0.0659,0.0662,0.0665,0.0666,0.0904,0.0908,0,0,0,0,0,0,0.0656,0.0657,0.0718,0.0719,0.0653,0.0659,0.0658,0.0677,0.0671,0.0667,0.0645,0.0638,0.0658,0.0662,0.0667,0.0781,0.0663,0.0667,0.0669,0.09,0.0905,0.0909,0,0,0,0,0,0,0.0655,0.0662,0.0718,0.0686,0.0692,0.0664,0.0686,0.0679,0.069,0.067,0.0665,0.0662,0.0656,0.0661,0.0725,0.078,0.0668,0.0672,0.0895,0.0901,0.0907,0.1011,0,0,0,0,0,0,0.0653,0.0662,0.0698,0.0688,0.0694,0.0775,0.0689,0.0682,0.0696,0.0687,0.0684,0.0681,0.0653,0.072,0.0729,0.0784,0.0675,0.089,0.0898,0.0905,0.1002,0.1019,0.1034,0,0,0,0,0,0.065,0.0728,0.07,0.0708,0.0737,0.0778,0.0782,0.0747,0.0701,0.0737,0.0725,0.0681,0.0772,0.0727,0.0737,0.0794,0.0887,0.0896,0.0904,0.0995,0.1016,0.1034,0,0,0,0,0,0,0.0748,0.0726,0.0695,0.0772,0.0777,0.0763,0.0808,0.077,0.0791,0.0782,0.0739,0.074,0.0811,0.0808,0.0758,0.0888,0.0822,0.0833,0.0887,0.0907,0.0923,0.0923,0.0678,0,0,0,0,0,0.0778,0.0811,0.0791,0.0861,0.0865,0.0836,0.0853,0.0825,0.083,0.0833,0.0825,0.0833,0.0863,0.0885,0.0912,0.1001,0.1,0.1045,0.106,0.1074,0.1085,0.1132,0.1152,0.0938,0.0938,0.0938,0,0,0.0842,0.0834,0.0858,0.0881,0.0882,0.0919,0.0839,0.0882,0.0909,0.084,0.0899,0.0894,0.09,0.0977,0.1011,0.0977,0.1143,0.1085,0.1096,0.1099,0.1144,0.1164,0.1182,0.0944,0.0943,0.0942,0,0,0.0977,0.0974,0.1032,0.1034,0.1036,0.1016,0.103,0.1021,0.1014,0.1073,0.1021,0.1054,0.1108,0.1114,0.1125,0.1261,0.1222,0.1271,0.1356,0.1403,0.142,0.1434,0.1485,0.1503,0.1282,0.1282,0.1282,0,0.1057,0.1109,0.1067,0.1113,0.1125,0.1061,0.1121,0.1125,0.1137,0.1148,0.1109,0.1174,0.1174,0.1252,0.1285,0.1295,0.1312,0.1273,0.142,0.1435,0.1448,0.1495,0.1514,0.1288,0.1288,0.1287,0.1286,0,0.1207,0.1244,0.1291,0.1302,0.1319,0.1372,0.1339,0.1362,0.1333,0.1318,0.1379,0.1375,0.1401,0.1417,0.139,0.1492,0.1471,0.1427,0.136,0.1475,0.1519,0.1537,0.1297,0.1295,0.1293,0.1291,0,0,0.1407,0.1392,0.141,0.1414,0.1411,0.144,0.149,0.1512,0.1534,0.1543,0.1586,0.1631,0.159,0.1602,0.1575,0.1616,0.1726,0.1567,0.1567,0.1598,0.184,0.1875,0.1896,0.1699,0.1702,0.1705,0.184,0,0.1539,0.1622,0.1586,0.1673,0.1708,0.1647,0.1691,0.1695,0.1682,0.171,0.1696,0.173,0.1672,0.1679,0.1717,0.1705,0.1775,0.1694,0.174,0.1743,0.1743,0.1919,0.1955,0.2083,0.1857,0.186,0.1862,0,0.1705,0.172,0.1811,0.1801,0.1814,0.1854,0.1872,0.1899,0.1903,0.189,0.1903,0.1866,0.1917,0.1848,0.1918,0.1864,0.188,0.1877,0.1881,0.1886,0.1811,0.193,0.2123,0.2143,0.1888,0.1886,0.1884,0,0.1844,0.1886,0.1946,0.1951,0.1941,0.1971,0.1968,0.1967,0.1984,0.2,0.201,0.2033,0.2046,0.2065,0.2036,0.1988,0.211,0.2039,0.2103,0.2104,0.2133,0.2132,0.2333,0.2141,0.2141,0.214,0.214,0,0.1997,0.2055,0.2008,0.2045,0.2109,0.2066,0.2132,0.2122,0.2122,0.2158,0.2107,0.2142,0.21,0.2132,0.2109,0.2171,0.2177,0.217,0.2164,0.2176,0.2177,0.2187,0.2179,0.2145,0.2144,0.2143,0.2142,0,0.2163,0.2133,0.2195,0.2179,0.2177,0.2225,0.2212,0.2247,0.2229,0.2275,0.2284,0.2257,0.2291,0.2263,0.2297,0.2282,0.2364,0.2345,0.2363,0.2358,0.2425,0.242,0.2641,0.2669,0.2457,0.2459,0.2461,0,0.2264,0.2307,0.2295,0.2315,0.2315,0.2346,0.2362,0.2322,0.2341,0.2347,0.2382,0.2411,0.2432,0.249,0.2475,0.2501,0.2483,0.2558,0.2486,0.2497,0.2486,0.2485,0.2489,0.2574,0.2576,0.2578,0.258,0,0.2446,0.2429,0.2452,0.2471,0.249,0.2503,0.2513,0.2532,0.2491,0.2515,0.2548,0.2564,0.2598,0.2628,0.2649,0.2648,0.2609,0.2602,0.2619,0.2633,0.2642,0.264,0.2405,0.2598,0.2596,0.2595,0.2594,0.2593,0.2584,0.2619,0.2617,0.2645,0.2647,0.2657,0.2689,0.2674,0.27,0.2723,0.2698,0.2739,0.2742,0.2764,0.2768,0.2801,0.277,0.2793,0.28,0.2807,0.2817,0.2635,0.2804,0.2804,0.2803,0.2803,0.2802,0,0.2765,0.276,0.2786,0.2799,0.2822,0.2779,0.2787,0.281,0.2846,0.285,0.2871,0.291,0.2939,0.2926,0.2951,0.298,0.2963,0.2989,0.2987,0.2988,0.2843,0.2826,0.3002,0.3002,0.3002,0.3002,0.3002,0.3002,0.2862,0.2921,0.2903,0.2963,0.2957,0.2996,0.3004,0.3013,0.3017,0.3061,0.3085,0.3074,0.3072,0.3097,0.3122,0.3118,0.3131,0.3164,0.3153,0.3018,0.2998,0.298,0.2964,0.3166,0.3166,0.3296,0.3297,0.3298]}]]